Weather in Komintern

Russia / Orenburg Oblast     52°22′36″N   59°22′32″E
temp.,
°C
wind,
m/s
gust,
m/s
humid.,
%
clouds,
%
prec.,
mm/h
press.,
hPa
HPBL,
m
28 february, sun
sun2823:00−9sse4795100 0.9 1008203
02:00−9se2396100 0.4 100682
05:00−7e2396100 1.3 100484
08:00−6ne2397100 1.8 1003103
11:00−5n3496100 2.3 1002162
14:00−4n3395100 0.2 1002238
17:00−5n3396100 0.7 1002225
20:00−7nne3596100 0.8 1004189
1 march, mon
mon123:00−11n239698 0.9 100833
02:00−14nnw229780 0.0 101020
05:00−15n119885 0.1 101220
08:00−14ne119795 0.3 101420
11:00−12ese019288 0.4 1016166
14:00−10sw128998 0.1 1016342
17:00−10sw239399 0.1 1017264
20:00−12ssw339698 0.3 101862
2 march, tue
tue223:00−13wsw229798 0.4 101841
02:00−13wnw229785 0.1 101822
05:00−14wsw229789 0.2 101832
08:00−17wsw239894 0.1 101827
11:00−16wsw359386 0.1 1017158
14:00−13wsw589122 0.0 1016326
17:00−13sw6119026 0.0 1016347
20:00−15sw6119186 0.0 1015245
3 march, wed
wed323:00−17sw6129393 0.0 1015283
02:00−16ssw61196100 0.0 1013281
05:00−14ssw61295100 0.1 1011326
08:00−8ssw81593100 0.2 1009500
11:00−5ssw91593100 0.4 1007696
14:00−3ssw81394100 0.4 1005883
17:00−2ssw81295100 1.1 1002913
20:00−3ssw6129596 0.4 1001538
4 march, thu
thu423:00−6sw6129390 0.5 1002345
02:00−8sw6129372 0.0 1002251
05:00−10wsw6119156 0.0 1003213
08:00−12wsw611910 0.0 1005201
11:00−9w6128529 0.0 1006543
14:00−6wnw698260 0.0 1007837
17:00−7w4108454 0.0 1009309
20:00−11wnw5118519 0.0 1012199